Greenville, ME

12:07 PM EDT on April 25, 2017 (GMT -0400)
Greenville

Weather History for KGNR - May, 2013

Change the Weather History Date:

Monday, May 20, 2013

  Actual Average (KMLT) Record (KMLT)
Temperature  
Mean Temperature 54 °F -  
Max Temperature 64 °F 64 °F 92 °F (1962)
Min Temperature 44 °F 42 °F 27 °F (1924)
Degree Days  
Heating Degree Days 11    
Growing Degree Days 4 (Base 50)    
Moisture  
Dew Point 49 °F    
Average Humidity 91    
Maximum Humidity 100    
Minimum Humidity 67    
Precipitation  
Precipitation 0.64 in - - ()
Sea Level Pressure  
Sea Level Pressure 30.01 in    
Wind  
Wind Speed 5 mph (NNE)    
Max Wind Speed 9 mph    
Max Gust Speed -    
Averages and records for this station are not official NWS values.
T = Trace of Precipitation, MM = Missing Value Source: NWS Daily Summary

Daily Weather History Graph

Daily Weather History Graph

Search for Another Location

Airport or City:

Trip Planner

Search our weather history database for the weather conditions in past years. The results will help you decide how hot, cold, wet, or windy it might be!

Date:

Astronomy

May. 20, 2013 Rise Set
Actual Time 5:02 AM EDT 8:08 PM EDT
Civil Twilight 4:26 AM EDT 8:43 PM EDT
Nautical Twilight 3:41 AM EDT 9:29 PM EDT
Astronomical Twilight 2:46 AM EDT 10:24 PM EDT
Moon 2:58 PM EDT (5/20) 2:10 AM EDT (5/20)
Length of Visible Light 16h 16m
Length of Day
15h 05m
Waxing Gibbous, 75% of the Moon is Illuminated
May 20
Waxing Gibbous
May 25
Full
May 31
Last Quarter
Jun 8
New
Jun 16
First Quarter

Hourly Weather History & Observations

Time (EDT) Temp. Windchill Dew Point Humidity Pressure Visibility Wind Dir Wind Speed Gust Speed Precip Events Conditions
12:56 AM 45.0 °F 42.6 °F 44.1 °F 97% 30.18 in - Variable 4.6 mph - 0.01 in   Unknown
1:56 AM 45.0 °F 40.1 °F 44.1 °F 97% 30.15 in - ESE 9.2 mph - 0.05 in   Unknown
2:56 AM 44.1 °F 42.5 °F 44.1 °F 100% 30.12 in - ESE 3.5 mph - 0.08 in   Unknown
3:56 AM 45.0 °F 41.2 °F 44.1 °F 97% 30.08 in - SE 6.9 mph - 0.12 in   Unknown
4:56 AM 45.0 °F 41.8 °F 44.1 °F 97% 30.05 in - Variable 5.8 mph - 0.09 in   Unknown
5:56 AM 45.0 °F 41.8 °F 45.0 °F 100% 30.04 in - Variable 5.8 mph - 0.06 in   Unknown
6:56 AM 46.0 °F 43.9 °F 46.0 °F 100% 30.03 in - Variable 4.6 mph - 0.13 in   Unknown
7:56 AM 46.9 °F - 46.0 °F 97% 30.02 in - Variable 3.5 mph - 0.04 in   Unknown
8:56 AM 46.9 °F - 46.0 °F 97% 30.01 in - Variable 5.8 mph - 0.03 in   Unknown
9:56 AM 48.0 °F - 46.9 °F 96% 30.01 in - Variable 5.8 mph - 0.02 in   Unknown
10:56 AM 48.0 °F - 48.0 °F 100% 30.01 in - ESE 5.8 mph - 0.01 in   Unknown
11:56 AM 50.0 °F - 48.9 °F 96% 29.99 in - Variable 3.5 mph - N/A   Unknown
12:56 PM 51.1 °F - 50.0 °F 96% 29.97 in - Calm Calm - N/A   Unknown
1:56 PM 52.0 °F - 51.1 °F 97% 29.96 in - Calm Calm - N/A   Unknown
2:56 PM 57.9 °F - 53.1 °F 84% 29.95 in - Variable 3.5 mph - N/A   Unknown
3:56 PM 63.0 °F - 54.0 °F 72% 29.94 in - NNW 9.2 mph - N/A   Unknown
4:56 PM 64.0 °F - 54.0 °F 70% 29.94 in - NNW 6.9 mph - N/A   Unknown
5:56 PM 64.0 °F - 53.1 °F 67% 29.95 in - North 8.1 mph - N/A   Unknown
6:56 PM 60.1 °F - 54.0 °F 80% 29.97 in - Calm Calm - N/A   Unknown
7:56 PM 57.9 °F - 53.1 °F 84% 29.97 in - Calm Calm - N/A   Unknown
8:56 PM 55.9 °F - 50.0 °F 80% 29.99 in - NW 6.9 mph - N/A   Unknown
9:56 PM 54.0 °F - 48.9 °F 83% 30.00 in - NNW 6.9 mph - N/A   Unknown
10:56 PM 52.0 °F - 51.1 °F 97% 30.01 in - Calm Calm - N/A   Unknown
11:56 PM 53.1 °F - 53.1 °F 100% 30.01 in - Calm Calm - N/A   Unknown